Rotterdam, Netherlands

5:39 AM CEST on June 28, 2017 (GMT +0200)
Rotterdam

Weather History for EHRD - September, 2013

Change the Weather History Date:

Monday, September 23, 2013

  Actual Average Record
Temperature  
Mean Temperature 60 °F -  
Max Temperature 69 °F 58 °F 71 °F (1999)
Min Temperature 51 °F 46 °F 39 °F (2012)
Degree Days  
Heating Degree Days 5    
Growing Degree Days 10 (Base 50)    
Moisture  
Dew Point 59 °F    
Average Humidity 91    
Maximum Humidity 100    
Minimum Humidity 68    
Precipitation  
Precipitation 0.00 in - - ()
Sea Level Pressure  
Sea Level Pressure 30.27 in    
Wind  
Wind Speed 5 mph ()    
Max Wind Speed 10 mph    
Max Gust Speed -    
Visibility 4.5 miles    
Events Fog    
Averages and records for this station are not official NWS values.
T = Trace of Precipitation, MM = Missing Value Source: Averaged Metar Reports

Daily Weather History Graph

Daily Weather History Graph

Search for Another Location

Airport or City:

Trip Planner

Search our weather history database for the weather conditions in past years. The results will help you decide how hot, cold, wet, or windy it might be!

Date:

Astronomy

Sep. 23, 2013 Rise Set
Actual Time 7:29 AM CEST 7:38 PM CEST
Civil Twilight 6:56 AM CEST 8:11 PM CEST
Nautical Twilight 6:16 AM CEST 8:51 PM CEST
Astronomical Twilight 5:34 AM CEST 9:32 PM CEST
Moon 9:24 PM CEST (9/23) 12:07 PM CEST (9/23)
Length of Visible Light 13h 15m
Length of Day
12h 08m
Waning Gibbous, 83% of the Moon is Illuminated
Sep 23
Waning Gibbous
Sep 27
Last Quarter
Oct 5
New
Oct 12
First Quarter
Oct 19
Full

Hourly Weather History & Observations

Time (CEST) Temp. Dew Point Humidity Pressure Visibility Wind Dir Wind Speed Gust Speed Precip Events Conditions
12:25 AM 59.0 °F 57.2 °F 94% 30.33 in 2.5 mi SW 6.9 mph - N/A   Mostly Cloudy
12:55 AM 59.0 °F 59.0 °F 100% 30.33 in 3.1 mi WSW 4.6 mph - N/A   Overcast
1:25 AM 59.0 °F 59.0 °F 100% 30.33 in 3.1 mi WSW 4.6 mph - N/A   Overcast
1:55 AM 59.0 °F 59.0 °F 100% 30.33 in - WSW 3.5 mph - N/A   Mostly Cloudy
2:00 AM 60 °F 59 °F 94% 30.35 in 3 mi WSW 2.2 mph - -   Mist
2:25 AM 59.0 °F 59.0 °F 100% 30.33 in 3.1 mi Variable 2.3 mph - N/A   Overcast
2:55 AM 59.0 °F 59.0 °F 100% 30.33 in 3.1 mi SSW 3.5 mph - N/A   Overcast
3:25 AM 59.0 °F 59.0 °F 100% 30.33 in 3.1 mi SW 4.6 mph - N/A   Overcast
3:55 AM 60.8 °F 59.0 °F 94% 30.30 in 3.7 mi SW 4.6 mph - N/A   Overcast
4:25 AM 60.8 °F 59.0 °F 94% 30.30 in 3.7 mi SSW 3.5 mph - N/A   Overcast
4:55 AM 60.8 °F 59.0 °F 94% 30.30 in 3.7 mi SSW 4.6 mph - N/A   Overcast
5:00 AM 60 °F 60 °F 98% 30.32 in 4 mi SW 4.5 mph - -   Mist
5:25 AM 60.8 °F 59.0 °F 94% 30.30 in 3.7 mi WSW 4.6 mph - N/A   Overcast
5:55 AM 60.8 °F 60.8 °F 100% 30.30 in 3.1 mi WSW 4.6 mph - N/A   Overcast
6:25 AM 60.8 °F 59.0 °F 94% 30.30 in 3.1 mi SW 3.5 mph - N/A   Overcast
6:55 AM 60.8 °F 59.0 °F 94% 30.30 in 3.7 mi SW 3.5 mph - N/A   Mostly Cloudy
7:25 AM 60.8 °F 59.0 °F 94% 30.30 in 4.3 mi SW 4.6 mph - N/A   Mostly Cloudy
7:55 AM 60.8 °F 59.0 °F 94% 30.30 in 3.1 mi SW 2.3 mph - N/A   Overcast
8:00 AM 60 °F 60 °F 98% 30.32 in 4 mi 2.2 mph - -   Mist
8:25 AM 60.8 °F 60.8 °F 100% 30.30 in 3.7 mi WSW 3.5 mph - N/A   Overcast
8:55 AM 62.6 °F 60.8 °F 94% 30.30 in 3.7 mi SW 3.5 mph - N/A   Mostly Cloudy
9:25 AM 62.6 °F 60.8 °F 94% 30.30 in 3.7 mi WSW 5.8 mph - N/A   Mostly Cloudy
9:55 AM 62.6 °F 62.6 °F 100% 30.30 in 4.3 mi WSW 8.1 mph - N/A   Overcast
10:25 AM 64.4 °F 60.8 °F 88% 30.30 in 4.3 mi WSW 8.1 mph - N/A   Overcast
10:55 AM 64.4 °F 60.8 °F 88% 30.30 in 6.2 mi WSW 10.4 mph - N/A   Overcast
11:00 AM 65 °F 61 °F 83% 30.32 in 6 mi WSW 8.9 mph - -   Overcast
11:25 AM 64.4 °F 60.8 °F 88% 30.30 in 6.2 mi WSW 8.1 mph - N/A   Mostly Cloudy
11:55 AM 66.2 °F 60.8 °F 83% 30.30 in 6.2 mi WSW 9.2 mph - N/A   Overcast
12:25 PM 68.0 °F 62.6 °F 83% 30.30 in 6.2 mi WSW 10.4 mph - N/A   Mostly Cloudy
12:55 PM 66.2 °F 60.8 °F 83% 30.30 in 6.2 mi West 9.2 mph - N/A   Mostly Cloudy
1:25 PM 68.0 °F 60.8 °F 78% 30.27 in 6.2 mi West 9.2 mph - N/A   Mostly Cloudy
1:55 PM 68.0 °F 60.8 °F 78% 30.27 in 6.2 mi West 8.1 mph - N/A   Mostly Cloudy
2:00 PM 68 °F 61 °F 71% 30.30 in 14 mi West 8.9 mph - -   Partly Cloudy
2:25 PM 66.2 °F 60.8 °F 83% 30.27 in 6.2 mi West 9.2 mph - N/A   Overcast
2:55 PM 68.0 °F 59.0 °F 73% 30.27 in 6.2 mi West 8.1 mph - N/A   Mostly Cloudy
3:25 PM 66.2 °F 59.0 °F 78% 30.24 in 6.2 mi West 8.1 mph - N/A   Mostly Cloudy
3:55 PM 66.2 °F 59.0 °F 78% 30.24 in 6.2 mi West 8.1 mph - N/A   Mostly Cloudy
4:25 PM 66.2 °F 59.0 °F 78% 30.24 in 6.2 mi WNW 5.8 mph - N/A   Overcast
4:55 PM 66.2 °F 59.0 °F 78% 30.24 in 6.2 mi WNW 5.8 mph - N/A   Overcast
5:00 PM 66 °F 58 °F 68% 30.24 in 15 mi NW 6.7 mph - -   Overcast
5:25 PM 66.2 °F 59.0 °F 78% 30.21 in 6.2 mi WNW 6.9 mph - N/A   Overcast
5:55 PM 66.2 °F 59.0 °F 78% 30.21 in 6.2 mi WNW 6.9 mph - N/A   Unknown
6:25 PM 64.4 °F 59.0 °F 83% 30.21 in 6.2 mi WNW 4.6 mph - N/A   Scattered Clouds
6:55 PM 64.4 °F 59.0 °F 83% 30.21 in 6.2 mi West 4.6 mph - N/A   Overcast
7:25 PM 60.8 °F 59.0 °F 94% 30.21 in 6.2 mi West 4.6 mph - N/A   Partly Cloudy
7:55 PM 59.0 °F 57.2 °F 94% 30.21 in 5.0 mi West 3.5 mph - N/A   Unknown
8:00 PM 59 °F 58 °F 94% 30.22 in 5 mi West 2.2 mph - -   Mist
8:25 PM 59.0 °F 59.0 °F 100% 30.21 in 3.7 mi West 3.5 mph - N/A   Unknown
8:55 PM 57.2 °F 57.2 °F 100% 30.18 in - West 2.3 mph - N/A   Mist
9:25 PM 57.2 °F 57.2 °F 100% 30.18 in 1.1 mi West 2.3 mph - N/A   Mist
9:55 PM 55.4 °F 55.4 °F 100% 30.18 in 0.4 mi West 2.3 mph - N/A Fog Fog
10:25 PM 53.6 °F 53.6 °F 100% 30.18 in 0.2 mi WNW 1.2 mph - N/A Fog Fog
10:55 PM 53.6 °F 53.6 °F 100% 30.18 in 0.1 mi SW 1.2 mph - N/A Fog Fog
11:00 PM 54 °F 54 °F 100% 30.18 in 0 mi Calm Calm - - Fog Fog
11:25 PM 51.8 °F 51.8 °F 100% 30.15 in 0.3 mi SW 1.2 mph - N/A Fog Fog
11:55 PM 51.8 °F 51.8 °F 100% 30.15 in 0.3 mi Calm Calm - N/A Fog Fog